sat.trackr.live / text

‹ back to catalog

STARLINK-30602

NORAD 58081 · 2023-160G

PAYLOAD ACTIVE UNKNOWN

§ Identity

Operator
Country
US
Launch date
2023-10-18
Launch site
AFETR
Launch vehicle
Mass (kg)
RCS (m²)

Purposes: comms

External: N2YO · Heavens-Above · Gunter

§ Orbital elements

Epoch: 2026-09-19T17:53:58.637184Z

Period
94.27 min
Inclination
42.9995°
Eccentricity
0.0001151
Mean motion
15.27588900 rev/d
Perigee alt
482.2 km
Apogee alt
483.8 km
Semi-major
6,861.2 km
B*
4.5531e-4
RAAN
65.4134°
Arg perigee
260.5596°
Mean anomaly
99.5126°
Rev number
16,258

§ Raw data

STARLINK-306021 58081U 23160G   26262.74581756  .00012291  00000+0  45531-3 0  99902 58081  42.9995  65.4134 0001151 260.5596  99.5126 15.27588900162585

JSON: /api/v1/satellites/58081 · /tle

For live sub-satellite position, see the globe view (requires WebGL).

§ Visibility from observer

Set your observer location to see the next 7 days of passes ≥ 10°. The values pass through the URL so the page stays shareable.

No JS? Fill the form by hand. The geolocation button needs JavaScript.